Regional Weather Roundup
Issued by NWS Little Rock, AR

Home | Current Version | Previous Version | Text Only | Print | Product List | Glossary Off
Versions: 1 2 3 4 5 6 7 8 9 10 11 12 13 14 15 16 17 18 19 20 21 22 23 24 25 26 27 28 29 30 31 32 33 34 35 36 37 38 39 40 41 42 43 44 45 46 47 48 49 50

000
ASUS44 KLZK 020305
RWRLZK

WEATHER ROUNDUP FOR ARKANSAS
NATIONAL WEATHER SERVICE LITTLE ROCK AR
1000 PM CDT MON JUN 01 2015

NOTE: "FAIR" INDICATES FEW OR NO CLOUDS BELOW 12,000 FEET WITH NO
SIGNIFICANT WEATHER AND/OR OBSTRUCTIONS TO VISIBILITY.

ARZ001-003-010-029-020400-
NORTHWEST ARKANSAS

CITY           SKY/WX    TMP DP  RH WIND       PRES   REMARKS
FAYETTEVILLE   CLEAR     64  61  90 E3        30.07R
FORT SMITH     CLEAR     71  60  68 E3        30.03R
HARRISON       MOCLDY    64  59  83 E6        30.11R
BENTONVILLE    CLEAR     66  57  72 E6        30.09R
ROGERS         CLEAR     64  59  83 NE6       30.10R
SILOAM SPGS    CLEAR     64  55  72 NE6       30.09R
HIGHFILL       CLEAR     66  60  81 NE3       30.08R
$$

ARZ004-005-016-020400-
NORTH CENTRAL ARKANSAS

CITY           SKY/WX    TMP DP  RH WIND       PRES   REMARKS
BATESVILLE     PTCLDY    64  59  82 NE5       30.10R
FLIPPIN        MOCLDY    64  59  82 NE5       30.09R
MTN HOME       CLOUDY    63  59  87 E6        30.10R
$$

ARZ040-041-020400-
WEST CENTRAL ARKANSAS

CITY           SKY/WX    TMP DP  RH WIND       PRES   REMARKS
MENA           MOCLDY    72  68  88 CALM      30.06R
MOUNT IDA      CLEAR     68  65  90 CALM      30.04R
$$

ARZ009-017-025-026-028-020400-
NORTHEAST ARKANSAS

CITY           SKY/WX    TMP DP  RH WIND       PRES   REMARKS
CORNING          N/A     63  63 100 NE9       30.12R
JONESBORO      PTCLDY    61  60  97 NE8       30.09R
NEWPORT        PTCLDY    64  63  97 N3        30.11R
WALNUT RIDGE   CLEAR     63  57  82 NE6       30.11R
BLYTHEVILLE    CLOUDY    64  62  93 N9        30.10S
$$

ARZ022-023-033-042-044-020400-
CENTRAL ARKANSAS

CITY           SKY/WX    TMP DP  RH WIND       PRES   REMARKS
LITTLE ROCK    PTCLDY    69  61  75 E6        30.07R
N LITTLE ROCK  PTCLDY    67  64  90 E6        30.07R
JACKSONVILLE   MOCLDY    67  63  85 NE5       30.07R
SEARCY         CLOUDY    68  62  81 NE6       30.10R
HOT SPRINGS    CLEAR     68  63  84 E6        30.06R
RUSSELLVILLE   MOCLDY    70  64  81 E7        30.06R
CLINTON        MOCLDY    66  64  94 CALM      30.10R
$$

ARZ036-020400-
EAST ARKANSAS

CITY           SKY/WX    TMP DP  RH WIND       PRES   REMARKS
WEST MEMPHIS   CLEAR     65  61  87 NE6       30.07R
$$

ARZ050-053-066-070-073-020400-
SOUTHWEST ARKANSAS

CITY           SKY/WX    TMP DP  RH WIND       PRES   REMARKS
ARKADELPHIA    FAIR      70  70 100 CALM      30.06R
CAMDEN         CLEAR     66  63  88 CALM      30.05R
TEXARKANA      CLEAR     69  65  86 E5        30.04R
EL DORADO      CLEAR     67  65  93 CALM      30.05R
DE QUEEN       CLEAR     68  66  93 CALM      30.02R
$$

ARZ056-057-069-020400-
SOUTHEAST ARKANSAS

CITY           SKY/WX    TMP DP  RH WIND       PRES   REMARKS
PINE BLUFF     CLEAR     68  64  87 NE7       30.07R
STUTTGART      CLEAR     68  63  83 MISG      30.08R
MONTICELLO     CLEAR     68  66  93 CALM      30.06R

$$





USA.gov is the U.S. government's official web portal to all federal, state and local government web resources and services.